SCP
0 0 0 0 0 0 0 0 0 0 0 0 0 0 0 0 0 0 0 0 0 0 0 0 0 0 0 0 0 0 0 0 0 0 0 0 0 0 0 0 0 0 0 0
0 0 0 0 0 0 0 0 0 0 0 0 0 0 0 0 0 0 0 0 0 0 0 0 0 0 0 0 0 0 0 0 0 0 0 0 0 0 0 0 0 0 0 0
0 0 0 0 0 0 0 0 0 0 0 0 0 0 0 0 0 0 0 0 0 0 0 0 0 0 0 0 0 0 0 0 0 0 0 0 0 0 0 0 0 0 0 0
0 0 0 0 0 0 0 0 0 0 0 0 0 0 0 0 0 0 0 0 0 0 0 0 0 0 0 0 0 0 0 0 0 0 0 0 0 0 0 0 0 0 0 0
0 0 0 0 0 0 0 0 0 0 0 0 0 0 0 0 0 0 0 0 0 0 0 0 0 0 0 0 0 0 0 0 0 0 0 0 0 0 0 0 0 0 0 0
0 0 0 0 0 0 0 0 0 0 0 0 0 0 0 0 0 0 0 0 0 0 0 0 0 0 0 0 0 0 0 0 0 0 0 0 0 0 0 0 0 0 0 0
0 0 0 0 0 0 0 0 0 0 0 0 0 0 0 0 0 0 0 0 0 0 0 0 0 0 0 0 0 0 0 0 0 0 0 0 0 0 0 0 0 0 0 0
0 0 0 0 0 0 0 0 0 0 0 0 0 0 0 0 0 0 0 0 0 0 0 0 0 0 0 0 0 0 0 0 0 0 0 0 0 0 0 0 0 0 0 0
0 0 0 0 0 0 0 0 0 0 0 0 0 0 0 0 0 0 0 0 0 0 0 0 0 0 0 0 0 0 0 0 0 0 0 0 0 0 0 0 0 0 0 0
0 0 0 0 0 0 0 0 0 0 0 0 0 0 0 0 0 0 0 0 0 0 0 0 0 0 0 0 0 0 0 0 0 0 0 0 0 0 0 0 0 0 0 0
0 0 0 0 0 0 0 0 0 0 0 0 0 0 0 0 0 0 0 0 0 0 0 0 0 0 0 0 0 0 0 0 0 0 0 0 0 0 0 0 0 0 0 0
0 0 0 0 0 0 0 0 0 0 0 0 0 0 0 0 0 0 0 0 0 -0 0 0 0 0 0 0 0 0 0 0 0 0 0 0 0 0 0 0 0 0 0 0
0 0 0 0 0 0 0 0 0 0 0 0 0 0 0 0 0 0 0 0 0 0 0 0 0 0 0 0 0 0 0 0 0 0 0 0 0 0 0 0 0 0 0 0
0 0 0 0 0 0 0 0 0 0 0 0 0 0 0 0 0 0 0 0 0 0 0 0 0 0 0 0 0 0 0 0 0 0 0 0 0 0 0 0 0 0 0 0
0 0 0 0 0 0 0 0 0 0 0 0 0 0 0 0 0 0 0 0 0 0 0 0 0 0 0 0 0 0 0 0 0 0 0 0 0 0 0 0 0 0 0 0
0 0 0 0 0 0 0 0 0 0 0 0 0 0 0 0 0 0 0 0 0 0 0 0 0 0 0 0 0 0 0 0 0 0 0 0 0 0 0 0 0 0 0 0
0 0 0 0 0 0 0 0 0 0 0 0 0 0 0 0 0 0 0 0 0 0 0 0 0 0 0 0 0 0 0 0 0 0 0 0 0 0 0 0 0 0 0 0
0 0 0 0 0 0 0 0 0 0 0 0 0 0 0 0 0 0 0 0 0 0 0 0 0 0 0 0 0 0 0 0 0 0 0 0 0 0 0 0 0 0 0 0
0 0 0 0 0 0 0 0 0 0 0 0 0 0 0 0 0 0 0 0 0 0 0 0 0 0 0 0 0 0 0 0 0 0 0 0 0 0 0 0 0 0 0 0
0 0 0 0 0 0 0 0 0 0 0 0 0 0 0 0 0 0 0 0 0 0 0 0 0 0 0 0 0 0 0 0 0 0 0 0 0 0 0 0 0 0 0 0
0 0 0 0 0 0 0 0 0 0 0 0 0 0 0 0 0 0 0 0 0 0 0 0 0 0 0 0 0 0 0 0 0 0 0 0 0 0 0 0 0 0 0 0
0 0 0 0 0 0 0 0 0 0 0 0 0 0 0 0 0 0 0 0 0 0 0 0 0 0 0 0 0 0 0 0 0 0 0 0 0 0 0 0 0 0 0 0
0 0 0 0 0 0 0 0 0 0 0 0 0 0 0 0 0 0 0 0 0 0 0 0 0 0 0 0 0 0 0 0 0 0 0 0 0 0 0 0 0 0 0 0
0 0 0 0 0 0 0 0 0 0 0 0 0 0 0 0 0 0 0 0 0 0 0 0 0 0 0 0 0 0 0 0 0 0 0 0 0 0 0 0 0 0 0 0
0 0 0 0 0 0 0 0 0 0 0 0 0 0 0 0 0 0 0 0 0 0 0 0 0 0 0 0 0 0 0 0 0 0 0 0 0 0 0 0 0 0 0 0
0 0 0 0 0 0 0 0 0 0 0 0 0 0 0 0 0 0 0 0 0 0 0 0 0 0 0 0 0 0 0 0 0 0 0 0 0 0 0 0 0 0 0 0
0 0 0 0 0 0 0 0 0 0 0 0 0 0 0 0 0 0 0 0 0 0 0 0 0 0 0 0 0 0 0 0 0 0 0 0 0 0 0 0 0 0 0 0
Wind_Speed
6 5 4 6 7 7 9 9 9 10 10 12 8 8 6 4 3 3 4 4 4 4 4 4 4 3 3 2 2 3 3 2 2 2 2 2 1 1 1 1 1 0 0 0
5 5 6 8 9 10 11 10 11 10 14 10 6 4 4 5 5 6 5 6 5 4 4 4 5 4 4 3 3 3 3 3 3 2 2 2 2 1 1 1 1 1 0 1
5 4 3 10 12 13 10 10 10 13 14 5 3 5 6 6 6 7 7 6 6 6 5 5 5 5 5 4 3 3 3 3 3 3 3 2 2 2 2 1 1 1 1 1
2 0 9 10 4 8 9 10 10 8 7 5 6 6 5 6 7 7 6 6 6 5 5 4 4 3 4 3 3 3 3 3 3 3 3 2 2 2 2 1 2 2 2 2
3 5 10 8 4 5 7 8 8 10 8 5 4 3 4 5 6 7 7 6 5 5 4 4 4 4 4 3 3 3 4 3 3 4 3 3 3 2 2 2 1 2 2 2
4 4 8 7 3 2 3 6 5 7 7 5 2 2 6 4 3 4 4 3 3 3 3 4 4 4 4 4 4 4 4 4 3 3 4 4 3 2 1 2 2 2 2 2
5 6 9 6 2 3 4 7 3 5 6 6 6 7 5 2 2 3 2 2 2 2 3 4 4 4 4 4 5 5 3 3 3 3 3 3 3 2 2 2 1 2 2 2
4 5 9 3 3 5 7 3 2 3 5 6 6 5 4 3 3 2 2 2 2 2 2 2 3 4 4 5 5 3 3 3 3 3 3 2 3 2 2 2 2 2 2 2
8 8 4 4 6 5 3 3 3 3 4 4 4 5 4 4 3 3 3 2 2 3 2 2 3 4 5 5 3 3 3 3 3 3 2 2 3 3 2 2 2 2 2 2
6 8 6 6 6 4 3 4 5 4 3 3 4 5 4 4 3 3 3 3 2 3 3 3 2 3 4 4 3 4 4 4 3 3 3 2 2 3 3 3 3 2 3 3
7 8 6 6 6 6 5 5 4 4 3 4 4 5 5 4 4 4 3 3 3 4 4 4 3 3 3 3 4 4 4 3 3 3 3 3 3 3 3 3 4 4 3 3
9 7 5 7 5 5 5 6 6 5 5 4 5 5 4 5 4 4 4 3 3 3 4 3 3 3 3 3 4 5 4 3 3 3 3 2 2 2 4 4 5 6 6 5
9 6 6 7 5 5 6 6 5 5 5 5 4 4 5 4 4 4 4 4 4 4 4 3 3 3 2 3 4 4 4 4 3 3 3 3 3 3 2 2 4 5 6 7
7 5 6 6 7 6 6 6 5 4 4 4 4 4 4 4 3 4 5 5 4 3 3 3 3 3 3 3 4 4 4 4 4 3 3 3 3 3 3 2 2 2 4 6
7 7 7 5 5 5 4 3 4 5 4 4 4 4 4 4 5 5 4 3 3 3 3 3 3 3 2 3 3 4 3 3 3 3 3 3 3 3 2 3 2 2 2 3
5 5 6 6 7 6 5 5 5 6 5 4 4 4 4 4 4 3 3 3 4 4 4 3 4 3 3 3 3 3 3 5 4 3 3 3 3 3 3 3 3 2 3 2
4 5 5 6 7 7 6 6 6 6 5 5 5 4 3 2 2 3 3 3 3 3 3 4 4 3 3 3 3 3 2 3 4 3 3 3 3 3 3 3 3 3 3 3
7 8 7 7 7 7 7 6 6 6 5 5 4 3 3 4 4 4 3 2 1 1 2 3 3 3 3 3 3 2 2 2 2 2 2 2 3 3 3 3 3 3 2 3
6 6 6 6 6 6 6 6 5 5 4 3 4 4 4 4 4 3 2 3 3 3 3 2 3 2 2 3 3 2 2 2 2 2 2 3 3 2 3 3 3 3 3 2
5 4 5 5 5 4 5 5 4 4 3 4 3 3 3 3 3 3 3 3 3 3 3 3 3 2 2 3 2 2 2 2 2 2 2 2 2 2 2 3 3 3 3 3
5 4 4 4 4 3 4 3 3 3 3 3 4 4 3 2 2 3 3 2 2 1 2 3 2 2 2 2 2 2 2 2 2 2 2 2 2 2 2 2 2 3 3 3
4 3 4 3 2 2 2 1 2 2 2 2 2 2 2 2 2 2 2 2 2 2 1 2 2 2 3 3 1 2 2 2 2 2 2 2 2 2 2 3 3 3 3 3
3 3 3 2 2 1 1 0 1 2 2 2 2 3 3 2 2 2 1 1 1 2 1 1 2 3 3 2 1 2 2 2 2 2 2 2 2 2 3 3 3 3 3 3
2 2 2 1 0 0 0 1 1 1 1 1 1 2 2 2 1 1 1 2 1 1 1 1 2 3 3 1 1 1 1 1 1 1 1 1 2 2 2 3 3 3 3 3
2 2 1 0 0 0 0 1 2 2 2 1 1 1 1 1 1 1 1 1 2 2 1 1 2 2 2 1 1 1 1 1 1 1 1 1 2 2 2 2 3 3 3 3
2 1 1 1 1 1 0 1 1 1 1 1 1 1 1 1 2 2 2 2 2 3 2 1 2 2 2 1 1 1 1 0 0 0 1 1 1 2 2 2 3 3 3 3
1 1 1 1 1 0 0 1 1 1 1 2 2 1 2 2 2 2 3 2 2 2 2 2 2 2 2 2 1 1 1 1 1 1 1 1 1 2 2 3 3 3 3 3
Wind_Direction
256 260 232 232 233 218 215 214 219 243 248 258 251 246 248 244 234 225 222 219 215 212 213 205 198 194 189 191 186 169 155 164 185 184 167 150 143 142 128 115 116 142 152 200
275 261 251 261 246 229 233 232 236 255 264 255 256 254 248 237 227 228 230 227 221 215 211 208 201 199 193 194 191 170 170 188 185 171 163 164 164 148 135 132 125 116 177 221
265 284 303 263 233 219 222 220 210 232 248 257 248 242 238 230 223 228 233 227 218 215 211 209 205 197 195 197 185 172 178 192 188 178 177 182 172 154 162 170 162 181 227 225
231 215 243 248 230 207 219 239 227 236 250 240 235 246 250 230 219 230 230 225 223 217 215 211 200 195 187 177 176 178 180 189 191 183 187 188 178 183 191 190 190 202 222 231
190 232 269 280 240 189 201 255 230 227 244 249 252 298 283 241 221 223 224 225 221 215 210 200 198 189 173 176 177 181 190 195 195 187 187 191 195 203 205 193 207 214 219 223
196 211 242 257 257 191 140 270 245 212 226 232 204 259 266 252 228 230 231 227 217 203 188 193 198 174 168 184 188 201 204 203 198 191 190 196 202 207 211 199 209 214 233 231
220 238 259 262 261 128 184 249 262 211 214 203 209 226 248 249 238 228 231 232 204 187 195 203 190 170 181 195 208 210 197 189 190 190 192 197 199 201 196 200 195 213 238 248
189 222 253 234 134 191 228 263 263 235 218 215 231 248 252 244 235 221 218 214 199 194 219 218 189 175 191 213 217 192 176 183 191 192 197 193 183 194 193 188 195 219 235 260
200 220 250 200 211 233 236 250 262 255 245 221 233 246 248 245 239 228 221 220 204 193 214 232 208 190 201 222 201 177 174 189 197 196 201 196 190 194 193 190 198 218 226 252
250 261 259 253 261 266 248 248 262 260 254 227 233 244 247 245 243 235 230 222 206 189 203 232 230 212 212 211 189 176 184 193 194 193 203 204 202 201 201 198 206 223 235 247
250 266 282 266 245 250 260 267 273 273 253 237 232 248 245 246 243 236 233 226 207 204 214 229 229 232 226 199 177 180 187 196 198 201 203 211 215 215 216 217 211 214 223 230
236 239 230 258 259 247 248 256 255 255 265 259 235 240 246 247 238 229 229 221 215 217 220 227 222 229 224 194 177 177 187 199 202 201 205 208 213 243 244 237 243 243 245 245
243 253 242 261 270 257 249 255 254 246 245 253 254 239 237 242 235 222 222 216 216 219 221 220 219 231 228 191 176 183 194 201 202 201 203 206 209 217 242 263 259 259 258 262
246 249 260 261 261 262 257 259 259 258 253 246 247 244 235 235 232 223 223 221 216 214 214 209 210 228 225 191 181 191 198 207 206 205 204 208 212 217 219 227 252 271 273 275
242 233 243 259 267 268 264 262 263 262 258 255 242 234 227 227 230 233 226 207 194 198 208 202 209 231 216 188 189 195 199 202 201 203 204 206 209 212 217 225 237 254 276 287
258 252 249 253 259 264 263 255 251 255 252 247 244 240 234 229 231 227 213 190 185 206 213 209 222 225 201 188 193 201 209 210 205 200 199 201 203 208 215 221 231 241 251 258
240 250 246 253 255 258 254 250 246 248 248 241 239 237 221 202 209 222 222 210 204 214 214 212 223 216 199 194 196 200 200 207 206 205 204 204 204 210 215 219 229 239 246 253
238 243 240 239 245 256 262 257 248 243 241 239 227 211 201 200 214 221 218 198 180 221 231 219 209 203 202 201 196 191 192 200 197 198 201 206 209 211 214 222 231 240 250 262
259 259 257 253 247 243 249 253 249 243 237 218 207 212 216 214 212 210 193 182 196 225 240 221 207 190 196 206 195 184 187 192 199 200 200 215 222 218 216 223 233 239 243 247
277 276 270 269 262 248 250 254 246 239 223 200 195 196 209 217 202 192 184 205 224 226 214 210 189 183 199 205 191 174 178 186 191 197 204 212 220 224 224 229 235 241 242 245
281 285 282 277 276 268 254 247 228 225 218 193 190 196 202 210 192 180 179 220 246 205 197 199 184 188 193 187 179 170 177 183 191 202 212 219 225 229 233 236 242 249 251 252
282 281 282 280 276 282 281 250 208 197 187 183 181 174 175 190 187 182 199 214 215 210 183 180 183 189 180 170 166 174 183 190 196 200 210 219 225 231 237 242 245 249 253 254
285 281 283 277 261 273 324 355 169 167 168 176 179 180 183 187 181 175 211 218 193 187 153 175 188 177 162 145 154 170 178 185 195 204 213 219 226 231 238 243 244 247 251 253
296 302 303 305 322 97 21 351 50 108 131 145 169 177 168 155 151 191 190 186 175 142 122 170 157 144 127 109 137 153 165 178 195 209 216 224 231 235 240 244 249 251 251 253
301 299 304 342 61 258 221 98 88 93 95 93 85 92 118 147 153 147 133 144 140 107 97 134 127 117 98 103 125 141 157 179 188 189 213 232 239 244 248 248 249 252 253 255
303 290 279 258 236 223 186 135 121 121 116 102 79 81 85 90 99 96 93 94 99 92 83 78 83 88 82 89 87 81 84 85 349 284 246 254 250 250 253 255 256 255 257 260
327 336 357 6 356 351 134 140 142 153 152 136 119 103 95 91 91 87 84 83 81 78 76 67 63 68 75 75 69 58 52 44 25 354 319 293 281 272 267 265 266 267 268 267